{"data":{"norad_id":48311,"epoch":"2026-05-25T02:17:36.538656Z","epoch_age_seconds":60070,"freshness":"FRESH","line1":"1 48311U 21036AM  26145.09556179  .00000119  00000+0  15604-4 0  9999","line2":"2 48311  53.1595  93.2996 0001097 106.0315 254.0807 15.31691589279921","mean_motion":15.31691589,"eccentricity":0.0001097,"inclination_deg":53.1595,"raan_deg":93.2996,"arg_perigee_deg":106.0315,"mean_anomaly_deg":254.0807,"bstar":1.5604e-5,"rev_number":27992,"period_min":94.013704217057,"perigee_km":470.01374353684,"apogee_km":471.51639265058,"semimajor_km":6848.9020680937,"source":"CELESTRAK","updated_at":"2026-05-25T13:38:16.679583Z"}}